Find KUIPER-00504

NORAD ID: 68885 Int'l Des: 2026-095X Owner: kuiper Country: USA Constellation: kuiper operational
LEOCIRCULAR

Live Position

Loading 3D Globe...

About KUIPER-00504

Description loading...

Upcoming Passes

Passes for default location (London). Set your location on the main map for personalized predictions.

Altitude History

Loading altitude history...

Two-Line Element Set

1 68885U 26095X 26120.66670139 -.00012288 00000-0 -33940-3 0 9991
2 68885 51.8696 112.2005 0012404 136.5315 23.4101 15.35493837 1301
Epoch: Apr 30, 2026 • Age: 31 hours

Current Status

Altitude 462.7 km
Velocity 7.64 km/s
Sub-Earth Point 33.00°N, 64.46°W
Type internet

Most Searched